Change the Weather History Date:

Saturday, November 16, 2013

  Actual Average Record
Temperature  
Mean Temperature 47 °F -  
Max Temperature 59 °F 47 °F 70 °F (1953)
Min Temperature 35 °F 31 °F 6 °F (1959)
Degree Days  
Heating Degree Days 18    
Moisture  
Dew Point 42 °F    
Average Humidity 85    
Maximum Humidity 93    
Minimum Humidity 77    
Precipitation  
Precipitation 0.00 in - - ()
Sea Level Pressure  
Sea Level Pressure 29.73 in    
Wind  
Wind Speed 9 mph (South)    
Max Wind Speed 21 mph    
Max Gust Speed 31 mph    
Visibility 8 miles    
Events Fog , Rain    
Averages and records for this station are not official NWS values.
T = Trace of Precipitation, MM = Missing Value Source: NWS Daily Summary

Daily Weather History Graph

Daily Weather History Graph

Search for Another Location

Airport or City:

Trip Planner

Search our weather history database for the weather conditions in past years. The results will help you decide how hot, cold, wet, or windy it might be!

Date:

Astronomy

Nov. 16, 2013 Rise Set
Actual Time 6:46 AM CST 4:27 PM CST
Civil Twilight 6:15 AM CST 4:57 PM CST
Nautical Twilight 5:41 AM CST 5:32 PM CST
Astronomical Twilight 5:07 AM CST 6:05 PM CST
Moon 4:03 PM CST (11/16) 5:41 AM CST (11/16)
Length of Visible Light 10h 42m
Length of Day
9h 40m
Waxing Gibbous, 99% of the Moon is Illuminated
Nov 16
Waxing Gibbous
Nov 17
Full
Nov 25
Last Quarter
Dec 2
New
Dec 9
First Quarter

Hourly Weather History & Observations

Time (CST) Temp. Windchill Dew Point Humidity Pressure Visibility Wind Dir Wind Speed Gust Speed Precip Events Conditions
12:15 AM 37.4 °F 32.8 °F 32.0 °F 81% 29.91 in 10.0 mi South 5.8 mph - N/A   Clear
12:35 AM 37.4 °F 32.8 °F 32.0 °F 81% 29.91 in 10.0 mi South 5.8 mph - N/A   Clear
12:55 AM 37.4 °F 31.4 °F 32.0 °F 81% 29.91 in 10.0 mi South 8.1 mph - N/A   Clear
1:15 AM 37.4 °F 32.8 °F 32.0 °F 81% 29.90 in 10.0 mi South 5.8 mph - N/A   Clear
1:35 AM 37.4 °F 32.8 °F 32.0 °F 81% 29.90 in 10.0 mi South 5.8 mph - N/A   Clear
1:55 AM 35.6 °F 29.9 °F 32.0 °F 87% 29.90 in 10.0 mi South 6.9 mph - N/A   Clear
2:15 AM 35.6 °F 30.7 °F 32.0 °F 87% 29.90 in 10.0 mi SSW 5.8 mph - N/A   Clear
2:35 AM 37.4 °F 32.1 °F 32.0 °F 81% 29.91 in 10.0 mi South 6.9 mph - N/A   Clear
2:55 AM 35.6 °F 31.7 °F 32.0 °F 87% 29.90 in 10.0 mi South 4.6 mph - N/A   Clear
3:15 AM 35.6 °F 30.7 °F 32.0 °F 87% 29.90 in 10.0 mi South 5.8 mph - N/A   Clear
3:35 AM 37.4 °F 33.8 °F 32.0 °F 81% 29.89 in 10.0 mi South 4.6 mph - N/A   Clear
3:55 AM 37.4 °F 33.8 °F 32.0 °F 81% 29.89 in 10.0 mi SSE 4.6 mph - N/A   Clear
4:15 AM 37.4 °F 32.8 °F 32.0 °F 81% 29.89 in 10.0 mi SSE 5.8 mph - N/A   Clear
4:35 AM 37.4 °F 33.8 °F 32.0 °F 81% 29.88 in 10.0 mi SSE 4.6 mph - N/A   Clear
4:55 AM 39.2 °F 33.6 °F 33.8 °F 81% 29.88 in 10.0 mi SSE 8.1 mph - N/A   Mostly Cloudy
5:15 AM 39.2 °F 33.6 °F 33.8 °F 81% 29.88 in 10.0 mi South 8.1 mph - N/A   Overcast
5:35 AM 41.0 °F 36.4 °F 35.6 °F 81% 29.87 in 7.0 mi South 6.9 mph - N/A   Overcast
5:55 AM 41.0 °F 35.8 °F 35.6 °F 81% 29.86 in 7.0 mi SSE 8.1 mph - N/A   Overcast
6:15 AM 41.0 °F 36.4 °F 37.4 °F 87% 29.86 in 5.0 mi SSE 6.9 mph - N/A   Overcast
6:35 AM 41.0 °F 36.4 °F 37.4 °F 87% 29.85 in 3.0 mi SSE 6.9 mph - N/A   Overcast
6:45 AM 41.0 °F 37.1 °F 39.2 °F 93% 29.85 in 1.0 mi SE 5.8 mph - N/A Fog Overcast
7:45 AM 42.8 °F 38.6 °F 41.0 °F 93% 29.84 in 0.8 mi SSE 6.9 mph - N/A Fog Overcast
8:45 AM 44.6 °F 38.4 °F 42.8 °F 93% 29.82 in 1.0 mi South 12.7 mph 17.3 mph N/A Fog Overcast
9:45 AM 46.4 °F 41.5 °F 44.6 °F 93% 29.80 in 1.5 mi SSE 10.4 mph 17.3 mph N/A Fog Overcast
10:45 AM 48.2 °F - 44.6 °F 87% 29.78 in 2.5 mi South 16.1 mph 23.0 mph N/A   Haze
11:45 AM 48.2 °F - 46.4 °F 93% 29.74 in 2.5 mi South 13.8 mph 19.6 mph N/A   Overcast
12:45 PM 50.0 °F - 46.4 °F 87% 29.69 in 2.5 mi South 12.7 mph 17.3 mph N/A   Overcast
1:45 PM 51.8 °F - 48.2 °F 88% 29.68 in 2.0 mi South 17.3 mph 25.3 mph N/A Rain Light Rain
2:45 PM 51.8 °F - 48.2 °F 88% 29.64 in 3.0 mi South 13.8 mph 19.6 mph N/A Rain Light Rain
3:45 PM 53.6 °F - 50.0 °F 88% 29.60 in 5.0 mi SSE 12.7 mph 21.9 mph N/A   Light Drizzle
5:45 PM 51.8 °F - 48.2 °F 88% 29.55 in 5.0 mi SSE 10.4 mph 17.3 mph N/A   Drizzle
6:45 PM 55.4 °F - 51.8 °F 88% 29.55 in 10.0 mi South 13.8 mph 21.9 mph N/A   Mostly Cloudy
7:45 PM 55.4 °F - 51.8 °F 88% 29.53 in 7.0 mi South 19.6 mph 28.8 mph N/A   Overcast
8:15 PM 55.4 °F - 51.8 °F 88% 29.53 in 10.0 mi South 20.7 mph 27.6 mph N/A   Overcast
8:35 PM 55.4 °F - 51.8 °F 88% 29.53 in 10.0 mi South 19.6 mph 27.6 mph N/A   Overcast
8:45 PM 55.4 °F - 51.8 °F 88% 29.52 in 10.0 mi South 20.7 mph 27.6 mph N/A   Overcast
8:55 PM 55.4 °F - 51.8 °F 88% 29.54 in 10.0 mi SSW 15.0 mph 28.8 mph N/A   Overcast
9:15 PM 55.4 °F - 51.8 °F 88% 29.54 in 10.0 mi SSW 16.1 mph 28.8 mph N/A   Overcast
9:35 PM 57.2 °F - 51.8 °F 82% 29.53 in 10.0 mi SSW 16.1 mph 26.5 mph N/A   Overcast
9:55 PM 57.2 °F - 51.8 °F 82% 29.53 in 10.0 mi SSW 16.1 mph 26.5 mph N/A   Overcast
10:15 PM 59.0 °F - 51.8 °F 77% 29.53 in 10.0 mi SSW 18.4 mph 31.1 mph N/A   Overcast
10:35 PM 59.0 °F - 51.8 °F 77% 29.53 in 10.0 mi SSW 17.3 mph 27.6 mph N/A   Overcast
10:55 PM 59.0 °F - 51.8 °F 77% 29.53 in 10.0 mi SSW 17.3 mph 21.9 mph N/A   Overcast
11:15 PM 59.0 °F - 51.8 °F 77% 29.53 in 10.0 mi SSW 13.8 mph 19.6 mph N/A   Overcast
11:35 PM 59.0 °F - 51.8 °F 77% 29.53 in 10.0 mi SSW 13.8 mph 23.0 mph N/A   Overcast
11:55 PM 59.0 °F - 51.8 °F 77% 29.52 in 10.0 mi SSW 15.0 mph 21.9 mph N/A   Overcast